| time (UTC) | temp F | wind direction | speed knots | gust knots | rain 1hr in | rain 24hr in | rain mn in | humidity % | barometer mb |
| 20260505194004 | 83 | 100 | 0.0 | 8.7 | 0.00 | 0.00 | 0.00 | 74 | 1008.3 |
| 20260505193004 | 83 | 157 | 4.3 | 9.6 | 0.00 | 0.00 | 0.00 | 76 | 1008.4 |
| 20260505192004 | 82 | 168 | 0.0 | 7.8 | 0.00 | 0.00 | 0.00 | 76 | 1008.4 |
| 20260505191004 | 82 | 161 | 0.9 | 8.7 | 0.00 | 0.00 | 0.00 | 75 | 1008.4 |
| 20260505190005 | 83 | 175 | 2.6 | 7.8 | 0.00 | 0.00 | 0.00 | 76 | 1008.5 |
| 20260505185004 | 82 | 144 | 7.0 | 8.7 | 0.00 | 0.00 | 0.00 | 77 | 1008.5 |
| 20260505184004 | 81 | 180 | 0.0 | 4.3 | 0.00 | 0.00 | 0.00 | 79 | 1008.7 |
| 20260505183005 | 81 | 170 | 3.5 | 5.2 | 0.00 | 0.00 | 0.00 | 78 | 1008.9 |
| 20260505180004 | 81 | 170 | 0.0 | 5.2 | 0.00 | 0.00 | 0.00 | 79 | 1009.1 |
| 20260505174003 | 81 | 116 | 1.7 | 10.4 | 0.00 | 0.00 | 0.00 | 77 | 1009.1 |
| 20260505173004 | 81 | 170 | 3.5 | 7.8 | 0.00 | 0.00 | 0.00 | 78 | 1009.1 |
| 20260505172004 | 81 | 163 | 7.8 | 9.6 | 0.00 | 0.00 | 0.00 | 78 | 1009.1 |
| 20260505171004 | 80 | 163 | 0.0 | 7.8 | 0.00 | 0.00 | 0.00 | 80 | 1009.3 |
| 20260505170004 | 80 | 158 | 0.0 | 8.7 | 0.00 | 0.00 | 0.00 | 82 | 1009.4 |
| 20260505165003 | 79 | 170 | 0.0 | 8.7 | 0.00 | 0.00 | 0.00 | 81 | 1009.4 |
| 20260505164003 | 79 | 136 | 3.5 | 6.1 | 0.00 | 0.00 | 0.00 | 81 | 1009.3 |
| 20260505163004 | 79 | 68 | 0.0 | 7.0 | 0.00 | 0.00 | 0.00 | 82 | 1009.5 |
| 20260505162003 | 78 | 164 | 1.7 | 5.2 | 0.00 | 0.00 | 0.00 | 82 | 1009.6 |
| 20260505161004 | 78 | 169 | 3.5 | 7.0 | 0.00 | 0.00 | 0.00 | 83 | 1009.6 |
| 20260505152003 | 76 | 129 | 0.0 | 7.0 | 0.00 | 0.00 | 0.00 | 84 | 1009.2 |
| 20260505151003 | 76 | 167 | 0.0 | 4.3 | 0.00 | 0.00 | 0.00 | 85 | 1009.3 |
| 20260505125004 | 72 | 175 | 0.0 | 2.6 | 0.00 | 0.00 | 0.00 | 89 | 1009.2 |
| 20260505124003 | 72 | 175 | 0.0 | 4.3 | 0.00 | 0.00 | 0.00 | 89 | 1008.8 |
| 20260505123004 | 72 | 175 | 4.3 | 5.2 | 0.00 | 0.00 | 0.00 | 89 | 1008.5 |
| 20260505122004 | 72 | 175 | 0.0 | 7.8 | 0.00 | 0.00 | 0.00 | 89 | 1008.5 |
| 20260505114004 | 71 | 2 | 0.0 | 2.6 | 0.00 | 0.00 | 0.00 | 89 | 1008.5 |
| 20260505113005 | 71 | 149 | 4.3 | 4.3 | 0.00 | 0.00 | 0.00 | 89 | 1008.3 |
| 20260505111005 | 71 | 154 | 0.9 | 5.2 | 0.00 | 0.00 | 0.00 | 89 | 1008.5 |
| 20260505102004 | 71 | 2 | 2.6 | 4.3 | 0.00 | 0.00 | 0.00 | 89 | 1008.4 |
| 20260505100004 | 71 | 175 | 0.0 | 3.5 | 0.00 | 0.00 | 0.00 | 89 | 1008.7 |
| 20260505095004 | 71 | 175 | 0.0 | 3.5 | 0.00 | 0.00 | 0.00 | 89 | 1008.7 |
| 20260505094004 | 71 | 45 | 0.0 | 3.5 | 0.00 | 0.00 | 0.00 | 88 | 1008.6 |
| 20260505093004 | 71 | 166 | 0.0 | 3.5 | 0.00 | 0.00 | 0.00 | 89 | 1008.6 |
| 20260505092004 | 71 | 166 | 0.0 | 4.3 | 0.00 | 0.00 | 0.00 | 88 | 1008.8 |
| 20260505091004 | 71 | 166 | 0.0 | 5.2 | 0.00 | 0.00 | 0.00 | 88 | 1009.0 |
| 20260505090004 | 71 | 163 | 0.0 | 0.9 | 0.00 | 0.00 | 0.00 | 88 | 1008.9 |
| 20260505083005 | 71 | 166 | 0.0 | 2.6 | 0.00 | 0.00 | 0.00 | 87 | 1009.1 |
| 20260505082004 | 71 | 166 | 0.0 | 4.3 | 0.00 | 0.00 | 0.00 | 87 | 1009.3 |
| 20260505081004 | 71 | 166 | 0.0 | 3.5 | 0.00 | 0.00 | 0.00 | 87 | 1009.2 |
| 20260505080004 | 71 | 166 | 3.5 | 5.2 | 0.00 | 0.00 | 0.00 | 86 | 1009.3 |
| 20260505075004 | 71 | 168 | 0.0 | 0.0 | 0.00 | 0.00 | 0.00 | 86 | 1009.4 |
| 20260505074004 | 71 | 168 | 0.0 | 3.5 | 0.00 | 0.00 | 0.00 | 86 | 1009.4 |
| 20260505073004 | 71 | 168 | 0.0 | 3.5 | 0.00 | 0.00 | 0.00 | 86 | 1009.5 |
| 20260505072004 | 71 | 168 | 0.0 | 0.0 | 0.00 | 0.00 | 0.00 | 85 | 1009.6 |
| 20260505071003 | 71 | 168 | 0.0 | 2.6 | 0.00 | 0.00 | 0.00 | 86 | 1009.9 |
| 20260505070004 | 71 | 168 | 0.0 | 4.3 | 0.00 | 0.00 | 0.00 | 85 | 1010.0 |
| 20260505064004 | 71 | 168 | 1.7 | 4.3 | 0.00 | 0.00 | 0.00 | 84 | 1010.0 |
| 20260505063004 | 71 | 168 | 4.3 | 4.3 | 0.00 | 0.00 | 0.00 | 84 | 1010.0 |
| 20260505062004 | 71 | 167 | 0.0 | 5.2 | 0.00 | 0.00 | 0.00 | 84 | 1010.1 |
| 20260505061004 | 71 | 167 | 0.0 | 7.0 | 0.00 | 0.00 | 0.00 | 83 | 1010.3 |
| 20260505060004 | 71 | 139 | 0.0 | 4.3 | 0.00 | 0.00 | 0.00 | 83 | 1010.3 |
| 20260505055003 | 71 | 146 | 0.0 | 2.6 | 0.00 | 0.00 | 0.00 | 83 | 1010.3 |
| 20260505054004 | 71 | 23 | 0.0 | 8.7 | 0.00 | 0.00 | 0.00 | 82 | 1010.2 |
| 20260505053004 | 72 | 32 | 0.0 | 4.3 | 0.00 | 0.00 | 0.00 | 82 | 1010.5 |
| 20260505052003 | 72 | 170 | 0.0 | 4.3 | 0.00 | 0.00 | 0.00 | 82 | 1010.4 |
| 20260505051003 | 72 | 196 | 0.0 | 4.3 | 0.00 | 0.00 | 0.00 | 81 | 1010.7 |
| 20260505041003 | 72 | 358 | 0.0 | 7.0 | 0.00 | 0.00 | 0.00 | 79 | 1010.5 |
| 20260505040005 | 73 | 359 | 0.0 | 6.1 | 0.00 | 0.00 | 0.00 | 78 | 1010.6 |
| 20260505035003 | 73 | 164 | 5.2 | 7.8 | 0.00 | 0.00 | 0.00 | 78 | 1010.7 |
| 20260505034003 | 73 | 164 | 0.0 | 7.0 | 0.00 | 0.00 | 0.00 | 78 | 1010.8 |
| 20260505033004 | 73 | 168 | 0.0 | 7.8 | 0.00 | 0.00 | 0.00 | 77 | 1010.6 |
| 20260505032003 | 74 | 158 | 3.5 | 7.0 | 0.00 | 0.00 | 0.00 | 77 | 1010.8 |
| 20260505031003 | 74 | 3 | 0.0 | 7.0 | 0.00 | 0.00 | 0.00 | 76 | 1010.7 |
| 20260505030004 | 74 | 360 | 2.6 | 5.2 | 0.00 | 0.00 | 0.00 | 75 | 1010.6 |
| 20260505025004 | 74 | 64 | 0.0 | 4.3 | 0.00 | 0.00 | 0.00 | 76 | 1010.6 |
| 20260505024003 | 75 | 353 | 0.0 | 7.8 | 0.00 | 0.00 | 0.00 | 75 | 1010.4 |
| 20260505023003 | 75 | 28 | 1.7 | 11.3 | 0.00 | 0.00 | 0.00 | 75 | 1010.5 |
| 20260505022004 | 75 | 164 | 0.0 | 5.2 | 0.00 | 0.00 | 0.00 | 76 | 1010.3 |
| 20260505021003 | 75 | 311 | 0.0 | 5.2 | 0.00 | 0.00 | 0.00 | 75 | 1010.4 |
| 20260505020003 | 75 | 162 | 0.0 | 5.2 | 0.00 | 0.00 | 0.00 | 75 | 1010.4 |
| 20260505015004 | 75 | 160 | 0.0 | 7.0 | 0.00 | 0.00 | 0.00 | 75 | 1010.2 |
| 20260505014003 | 75 | 166 | 0.0 | 4.3 | 0.00 | 0.00 | 0.00 | 73 | 1010.1 |
| 20260505012004 | 76 | 175 | 0.0 | 7.0 | 0.00 | 0.00 | 0.00 | 71 | 1009.8 |
| 20260505011003 | 76 | 158 | 0.0 | 5.2 | 0.00 | 0.00 | 0.00 | 72 | 1009.8 |
| 20260505010005 | 77 | 22 | 0.0 | 4.3 | 0.00 | 0.00 | 0.00 | 71 | 1009.8 |
| 20260505005004 | 77 | 155 | 0.0 | 5.2 | 0.00 | 0.00 | 0.00 | 71 | 1010.0 |
| 20260505004004 | 77 | 155 | 0.0 | 7.0 | 0.00 | 0.00 | 0.00 | 70 | 1010.1 |
| 20260505003004 | 77 | 168 | 0.0 | 7.8 | 0.00 | 0.00 | 0.00 | 69 | 1010.0 |
| 20260505002005 | 78 | 155 | 1.7 | 7.0 | 0.00 | 0.00 | 0.00 | 69 | 1010.0 |
| 20260505001004 | 78 | 120 | 0.0 | 7.8 | 0.00 | 0.00 | 0.00 | 68 | 1010.0 |
| 20260504234004 | 79 | 169 | 5.2 | 7.0 | 0.00 | 0.00 | 0.00 | 65 | 1010.0 |
| 20260504232004 | 80 | 168 | 0.9 | 7.8 | 0.00 | 0.00 | 0.00 | 63 | 1010.2 |
| 20260504231004 | 80 | 85 | 0.0 | 7.0 | 0.00 | 0.00 | 0.00 | 63 | 1010.3 |
| 20260504230004 | 80 | 168 | 0.0 | 5.2 | 0.00 | 0.00 | 0.00 | 64 | 1010.5 |
| 20260504225004 | 80 | 143 | 3.5 | 8.7 | 0.00 | 0.00 | 0.00 | 62 | 1010.6 |
| 20260504224004 | 80 | 359 | 1.7 | 8.7 | 0.00 | 0.00 | 0.00 | 60 | 1010.5 |
| 20260504223004 | 80 | 141 | 0.0 | 4.3 | 0.00 | 0.00 | 0.00 | 63 | 1010.8 |
| 20260504222004 | 80 | 141 | 0.0 | 7.8 | 0.00 | 0.00 | 0.00 | 60 | 1010.8 |
| 20260504221004 | 80 | 141 | 0.0 | 5.2 | 0.00 | 0.00 | 0.00 | 61 | 1010.8 |
| 20260504220004 | 81 | 141 | 0.0 | 4.3 | 0.00 | 0.00 | 0.00 | 58 | 1011.1 |
| 20260504214005 | 81 | 144 | 0.9 | 4.3 | 0.00 | 0.00 | 0.00 | 60 | 1011.1 |
| 20260504213004 | 81 | 148 | 7.0 | 8.7 | 0.00 | 0.00 | 0.00 | 59 | 1011.4 |
| 20260504212004 | 81 | 144 | 0.0 | 4.3 | 0.00 | 0.00 | 0.00 | 59 | 1011.4 |
| 20260504211009 | 81 | 143 | 2.6 | 5.2 | 0.00 | 0.00 | 0.00 | 59 | 1011.7 |
| 20260504210004 | 82 | 135 | 0.0 | 8.7 | 0.00 | 0.00 | 0.00 | 58 | 1011.9 |
| 20260504205004 | 81 | 348 | 0.9 | 7.8 | 0.00 | 0.00 | 0.00 | 59 | 1011.8 |
| 20260504204004 | 81 | 156 | 0.0 | 5.2 | 0.00 | 0.00 | 0.00 | 60 | 1012.2 |
| 20260504203004 | 82 | 317 | 0.0 | 6.1 | 0.00 | 0.00 | 0.00 | 56 | 1012.4 |
| 20260504201004 | 81 | 164 | 0.0 | 7.0 | 0.00 | 0.00 | 0.00 | 56 | 1012.9 |
| 20260504200004 | 82 | 47 | 0.0 | 4.3 | 0.00 | 0.00 | 0.00 | 56 | 1012.9 |
| 20260504195004 | 82 | 175 | 1.7 | 4.3 | 0.00 | 0.00 | 0.00 | 55 | 1013.1 |